Wind_Speed
11 11 11 10 11 10 10 10 10 9 9 10 10 10 10 10 10 10 10 10 10 10 10 9 9 9 9 8 8 8 7 7 8 8 7 7 6 6 6 7 7 6 6
12 12 12 11 11 11 11 11 11 11 11 11 11 11 11 11 11 11 11 11 10 10 10 10 10 10 10 9 9 9 9 8 8 8 8 8 8 8 8 8 7 7 7
13 13 13 12 12 12 12 13 12 12 13 13 12 12 12 12 12 12 12 12 12 12 11 11 11 11 11 10 10 10 9 9 9 9 9 10 9 9 9 9 9 8 8
13 14 13 13 13 13 13 13 13 14 14 14 14 13 13 13 13 13 13 13 13 13 12 12 12 12 12 11 11 11 11 10 10 10 11 11 11 11 10 10 10 10 10
14 14 14 14 14 14 14 14 14 14 14 14 15 15 15 15 14 14 14 14 14 14 13 13 13 13 13 13 12 12 12 12 12 12 12 12 12 12 11 11 11 11 11
15 15 15 16 16 15 15 15 14 14 15 15 15 15 15 16 16 15 15 14 14 14 14 14 15 15 15 15 14 14 13 13 13 13 13 12 13 13 13 12 12 12 13
17 17 17 17 17 17 17 16 16 16 16 16 16 16 16 17 17 17 17 16 16 16 16 16 16 17 17 16 16 16 15 15 16 15 15 14 14 14 14 14 14 14 14
18 18 18 18 18 18 18 18 17 17 16 17 17 18 18 18 18 18 18 18 18 18 18 18 18 18 18 18 18 18 18 18 18 17 17 16 16 15 15 15 15 15 15
20 20 20 20 20 20 20 20 20 19 19 19 19 19 19 19 19 19 19 19 20 20 20 20 20 20 20 20 20 20 20 20 20 19 19 19 18 18 18 18 17 18 18
21 21 21 21 22 22 22 22 22 22 22 21 21 21 20 20 20 20 20 19 20 20 20 21 21 21 22 22 21 21 22 22 22 22 21 21 21 21 20 20 20 20 20
23 23 23 23 23 23 23 23 24 24 24 23 23 22 21 21 21 21 21 21 21 22 22 22 22 22 23 23 23 23 24 24 23 23 23 23 23 23 23 22 23 22 22
25 25 25 25 25 24 25 25 25 25 25 25 25 24 23 23 23 23 23 23 23 24 24 24 25 25 24 24 25 25 25 26 26 26 26 26 26 25 25 25 25 25 24
26 27 27 27 27 27 27 27 27 27 27 27 26 26 26 25 25 25 26 26 26 25 26 26 27 27 26 26 27 27 28 27 28 28 28 28 28 28 28 27 27 27 26
28 28 28 28 29 29 29 29 29 28 28 28 28 28 28 28 28 28 28 28 28 28 28 28 28 29 29 29 29 30 30 30 30 31 31 31 31 31 31 31 30 30 29
29 29 29 30 30 31 31 30 30 31 30 30 30 30 30 30 31 31 31 31 31 31 31 31 31 31 32 32 32 32 32 33 33 33 34 34 34 34 34 34 34 33 33
30 30 31 31 31 31 32 32 32 32 32 32 32 32 32 33 33 34 33 34 34 34 34 34 33 33 34 34 34 35 35 36 36 36 36 36 36 36 36 36 36 36 36
32 31 32 32 33 33 33 33 33 34 34 35 35 36 35 35 35 36 35 36 36 37 36 36 36 36 36 37 37 37 38 38 39 39 39 39 39 39 39 39 39 39 38
34 33 33 34 34 35 35 35 35 36 37 37 38 38 38 39 39 39 38 38 38 38 39 39 39 39 39 40 41 41 41 41 41 41 41 42 42 41 41 41 41 42 41
35 36 36 36 36 37 37 37 38 38 39 39 40 40 40 41 42 41 42 42 41 41 41 41 42 43 43 43 43 44 44 44 43 43 44 44 44 43 44 44 44 44 45
37 37 38 38 38 39 40 40 40 41 41 42 43 43 43 43 44 44 44 44 44 44 45 45 45 45 45 45 46 46 46 46 45 46 46 47 47 47 47 47 46 46 46
38 39 40 40 41 41 42 42 43 43 44 44 45 45 46 46 46 46 46 47 47 48 48 47 48 48 48 48 48 48 47 47 48 48 48 49 49 50 50 50 49 49 48
40 40 41 42 43 43 44 44 45 46 46 46 47 47 47 48 48 48 49 49 49 49 49 49 50 50 50 50 50 50 49 48 49 49 49 50 50 51 51 51 50 50 50
41 42 43 43 44 44 45 46 46 47 48 48 48 48 49 49 50 50 50 50 51 51 50 50 51 51 51 50 51 52 51 51 50 50 52 52 51 52 52 51 51 51 52
43 44 44 44 44 44 45 45 47 47 48 48 49 49 50 51 52 52 52 52 52 52 52 52 52 52 52 51 52 52 53 53 53 53 52 52 52 52 53 53 52 51 52
43 43 43 44 44 44 45 45 46 47 47 48 49 49 50 51 51 52 52 53 52 52 52 52 53 53 53 53 53 53 54 55 55 54 53 52 51 51 52 52 52 51 52
42 43 43 44 45 45 45 46 46 47 48 48 49 50 50 50 51 51 51 52 51 52 52 53 53 54 54 54 55 55 55 55 55 55 54 53 53 52 52 52 52 51 52
Wind_Direction
264 265 263 265 267 269 270 271 274 273 273 272 271 270 266 263 261 258 258 259 257 257 255 254 255 256 255 256 257 254 255 254 256 258 259 263 263 263 264 264 259 256 258
264 265 264 265 267 268 270 273 274 274 274 273 272 270 266 264 261 259 259 259 259 259 255 254 255 255 255 257 257 256 256 256 255 256 258 261 260 261 263 265 264 257 256
263 264 265 266 267 268 270 272 275 274 275 274 273 271 266 263 264 264 264 263 261 261 260 257 257 257 258 257 256 256 256 255 254 255 257 259 258 259 260 262 262 264 260
263 264 266 267 267 268 271 273 273 273 276 276 273 272 268 264 265 265 265 264 261 260 260 259 258 258 258 258 258 257 256 257 256 256 257 259 259 258 258 259 261 262 263
262 263 266 267 267 268 270 272 273 274 276 277 273 271 267 265 265 266 266 264 261 260 261 260 260 260 259 258 259 259 258 258 258 258 257 258 258 259 258 258 261 262 263
262 263 263 265 266 267 268 271 273 274 275 276 273 270 268 267 266 266 266 266 265 265 264 264 263 263 262 261 259 259 260 260 259 260 259 258 257 258 258 258 260 263 262
262 262 262 264 266 267 268 270 272 274 274 273 272 271 269 268 267 266 265 265 265 266 266 265 265 263 261 262 261 260 259 261 261 263 262 260 258 259 259 259 260 262 262
263 263 263 263 265 267 268 269 271 272 273 274 272 271 268 268 266 265 265 265 264 264 265 265 265 264 262 261 261 261 260 260 262 263 263 263 262 261 261 260 260 261 260
263 263 263 263 264 265 266 268 269 270 272 274 273 271 268 267 266 264 265 265 264 264 263 264 264 265 264 263 261 261 262 262 262 262 262 263 263 262 262 263 263 263 261
262 263 264 265 265 266 267 268 270 271 272 274 274 273 270 269 268 266 266 266 265 265 265 265 265 265 265 264 263 263 262 262 262 262 262 262 262 262 262 263 264 264 262
262 263 264 266 266 266 267 268 270 271 273 273 273 273 272 271 270 270 269 267 267 267 267 266 266 266 265 264 265 265 264 262 262 261 261 261 261 261 261 263 264 263 261
263 263 265 266 266 266 266 267 269 272 273 273 272 272 272 272 271 271 270 269 267 267 268 268 268 268 267 266 265 265 264 263 262 261 261 261 261 261 261 262 262 263 262
263 264 265 266 267 268 269 269 270 272 273 273 273 272 272 273 271 271 271 270 269 268 268 269 270 269 269 268 267 265 264 264 263 262 261 260 261 260 261 261 262 262 262
264 265 265 266 267 269 270 270 271 271 273 273 273 273 273 272 272 271 271 270 270 269 269 269 269 269 269 269 268 267 265 265 264 263 262 261 261 260 260 260 261 263 262
265 266 266 266 267 269 270 270 271 272 272 272 272 272 272 273 272 271 271 270 270 270 269 269 269 268 268 268 268 268 267 267 265 264 264 263 262 261 260 259 260 261 260
267 267 267 268 268 269 271 271 272 272 272 271 272 271 272 272 272 272 272 271 271 271 270 270 270 269 269 269 269 269 268 268 267 266 265 264 263 262 261 260 260 261 260
267 267 268 268 269 269 270 271 272 272 272 272 272 272 272 272 272 272 273 273 272 271 271 271 270 270 269 269 269 270 270 268 267 266 265 264 263 262 262 261 261 260 260
267 267 268 269 270 270 271 272 273 273 273 273 272 272 273 272 273 272 273 273 273 272 271 271 271 271 271 270 269 270 270 268 267 266 265 264 263 263 263 261 261 259 259
267 268 269 269 270 271 272 272 273 274 274 274 273 273 273 273 273 273 273 273 272 272 272 273 273 272 272 272 270 270 270 269 267 266 266 265 264 263 262 262 260 259 259
267 268 269 270 271 272 273 273 274 275 274 274 273 273 273 273 273 273 273 273 273 273 273 274 274 273 273 272 271 271 270 269 268 266 265 265 264 263 263 262 261 259 259
268 269 270 271 273 273 274 274 275 275 274 273 273 273 273 274 274 274 274 274 274 275 274 274 274 274 274 273 272 271 271 270 269 268 266 265 264 264 263 262 261 260 259
270 271 272 273 273 274 275 275 275 275 275 275 274 273 273 274 275 274 275 275 275 275 275 275 275 275 274 273 272 271 271 270 270 269 267 266 264 264 263 262 261 260 259
272 273 274 275 274 275 275 276 276 276 276 276 275 274 274 274 274 275 275 275 275 275 275 275 275 275 274 274 273 273 272 270 270 270 269 267 265 263 263 261 260 259 258
272 273 275 275 276 276 277 277 276 276 276 276 276 276 275 275 276 276 276 276 275 275 275 275 276 276 275 274 274 273 273 272 271 270 268 266 265 263 262 261 260 259 258
274 274 274 275 275 276 277 277 277 277 277 278 278 278 277 277 277 277 277 277 275 275 275 275 275 275 274 274 274 273 273 273 272 271 267 265 264 262 261 260 259 258 257
275 275 274 274 275 276 277 277 277 278 279 279 279 279 279 278 278 277 278 277 276 276 276 275 275 275 274 274 274 274 273 272 271 270 268 265 263 261 260 260 259 258 257
Height
5832 5832 5832 5832 5832 5833 5833 5833 5833 5832 5832 5832 5832 5832 5832 5832 5833 5833 5834 5834 5834 5835 5836 5836 5837 5838 5838 5839 5839 5840 5840 5841 5842 5842 5843 5843 5844 5844 5845 5845 5846 5846 5847
5830 5830 5830 5830 5830 5831 5831 5831 5831 5831 5830 5830 5830 5830 5830 5830 5831 5831 5832 5832 5832 5833 5834 5835 5835 5836 5836 5837 5838 5838 5839 5840 5840 5841 5841 5842 5843 5843 5843 5844 5844 5845 5846
5827 5827 5828 5828 5828 5828 5828 5829 5828 5828 5828 5828 5828 5828 5828 5828 5828 5829 5830 5830 5831 5831 5832 5833 5833 5834 5835 5835 5836 5837 5837 5838 5838 5839 5840 5840 5841 5841 5842 5842 5843 5844 5844
5825 5825 5825 5825 5826 5826 5826 5826 5826 5826 5826 5825 5825 5825 5825 5826 5826 5827 5827 5828 5829 5829 5830 5831 5831 5832 5832 5833 5834 5834 5835 5836 5837 5837 5838 5838 5839 5840 5840 5841 5841 5842 5843
5822 5822 5823 5823 5823 5823 5823 5823 5823 5823 5823 5823 5822 5823 5823 5823 5824 5824 5825 5825 5826 5827 5828 5828 5829 5830 5830 5831 5831 5832 5833 5834 5834 5835 5835 5836 5837 5837 5838 5839 5839 5840 5840
5819 5819 5820 5820 5820 5820 5820 5820 5820 5820 5820 5820 5820 5820 5820 5820 5821 5821 5822 5823 5823 5824 5825 5826 5826 5827 5827 5828 5829 5830 5830 5831 5832 5832 5833 5834 5834 5835 5835 5836 5837 5838 5838
5816 5816 5816 5817 5817 5817 5817 5817 5817 5817 5817 5817 5817 5817 5817 5817 5818 5818 5819 5819 5820 5821 5822 5822 5823 5824 5824 5825 5826 5827 5827 5828 5829 5829 5830 5831 5832 5832 5833 5834 5834 5835 5836
5812 5813 5813 5813 5813 5814 5814 5814 5814 5813 5813 5813 5813 5813 5813 5814 5814 5815 5815 5816 5817 5817 5818 5819 5820 5820 5821 5821 5822 5823 5824 5825 5825 5826 5827 5828 5828 5829 5830 5830 5831 5832 5833
5808 5809 5809 5809 5809 5810 5810 5810 5810 5810 5809 5809 5809 5810 5810 5810 5810 5811 5811 5812 5813 5813 5814 5815 5816 5816 5817 5818 5818 5819 5820 5821 5821 5822 5823 5824 5825 5825 5826 5827 5828 5829 5829
5804 5804 5805 5805 5805 5805 5806 5806 5806 5805 5805 5805 5805 5805 5806 5806 5806 5807 5807 5808 5808 5809 5810 5810 5811 5812 5812 5813 5814 5815 5816 5816 5817 5818 5819 5820 5821 5821 5822 5823 5824 5824 5825
5800 5800 5800 5800 5801 5801 5801 5801 5801 5801 5801 5801 5801 5801 5801 5801 5802 5802 5803 5803 5804 5804 5805 5806 5806 5807 5808 5808 5809 5810 5811 5812 5813 5813 5814 5815 5816 5816 5817 5818 5819 5820 5821
5795 5795 5795 5795 5795 5796 5796 5796 5796 5796 5796 5796 5796 5796 5796 5797 5797 5797 5798 5798 5799 5799 5800 5801 5801 5802 5802 5803 5804 5804 5805 5806 5807 5808 5809 5810 5810 5811 5812 5813 5814 5815 5816
5789 5789 5789 5790 5790 5790 5790 5790 5790 5790 5790 5790 5790 5791 5791 5791 5791 5791 5792 5793 5793 5794 5794 5795 5795 5796 5796 5797 5798 5798 5799 5800 5801 5802 5803 5804 5805 5806 5806 5807 5808 5809 5810
5783 5783 5783 5784 5784 5784 5784 5784 5784 5784 5784 5784 5784 5784 5785 5785 5785 5785 5786 5786 5787 5787 5788 5788 5789 5789 5790 5790 5791 5792 5792 5793 5794 5795 5796 5797 5798 5799 5800 5801 5802 5803 5804
5777 5777 5777 5777 5777 5777 5777 5777 5777 5777 5777 5777 5777 5777 5777 5778 5778 5778 5778 5779 5779 5780 5780 5781 5781 5782 5783 5783 5783 5784 5785 5785 5786 5787 5788 5789 5790 5791 5792 5793 5794 5795 5797
5770 5770 5770 5770 5770 5770 5770 5770 5770 5770 5770 5770 5770 5770 5770 5770 5770 5770 5771 5771 5771 5772 5772 5773 5773 5774 5774 5775 5775 5776 5776 5777 5778 5778 5779 5780 5781 5782 5784 5785 5786 5787 5788
5763 5763 5763 5763 5763 5763 5762 5762 5762 5762 5762 5762 5762 5762 5761 5761 5762 5762 5762 5762 5763 5763 5763 5764 5764 5765 5765 5766 5766 5766 5767 5767 5768 5769 5770 5771 5772 5773 5774 5775 5777 5778 5779
5755 5755 5755 5755 5755 5754 5754 5754 5754 5754 5754 5753 5753 5753 5752 5752 5752 5752 5753 5753 5753 5753 5753 5754 5755 5755 5755 5756 5756 5756 5756 5757 5758 5758 5759 5760 5761 5762 5764 5765 5766 5767 5769
5747 5747 5747 5747 5746 5746 5745 5745 5745 5744 5744 5744 5744 5743 5743 5743 5742 5742 5742 5743 5743 5743 5743 5743 5744 5744 5744 5744 5745 5745 5745 5746 5746 5747 5748 5748 5749 5751 5752 5753 5754 5756 5758
5738 5738 5737 5737 5737 5736 5736 5735 5735 5735 5734 5734 5733 5733 5732 5731 5731 5731 5732 5732 5731 5732 5732 5732 5732 5732 5732 5732 5732 5733 5733 5733 5733 5734 5735 5736 5737 5737 5738 5740 5741 5743 5745
5728 5728 5728 5727 5727 5726 5726 5725 5725 5724 5723 5723 5722 5721 5721 5720 5720 5720 5720 5720 5720 5720 5719 5719 5719 5719 5719 5719 5719 5720 5720 5720 5721 5721 5721 5722 5723 5724 5724 5726 5727 5729 5731
5718 5718 5717 5717 5716 5715 5714 5713 5713 5712 5711 5710 5710 5709 5709 5708 5708 5707 5707 5707 5706 5706 5706 5706 5706 5705 5705 5705 5705 5705 5706 5708 5707 5707 5707 5708 5708 5709 5709 5710 5712 5714 5717
5707 5707 5706 5705 5704 5703 5702 5701 5701 5700 5699 5698 5697 5696 5696 5695 5695 5694 5693 5693 5693 5692 5692 5692 5691 5691 5691 5690 5689 5690 5690 5692 5693 5694 5693 5692 5693 5693 5694 5696 5697 5699 5701
5696 5695 5694 5693 5692 5691 5690 5689 5688 5687 5686 5685 5684 5683 5682 5682 5681 5680 5679 5679 5679 5678 5678 5677 5677 5676 5676 5676 5675 5674 5674 5674 5675 5678 5678 5677 5677 5678 5679 5680 5682 5684 5686
5684 5683 5682 5681 5680 5679 5678 5677 5676 5674 5673 5672 5671 5670 5669 5668 5666 5666 5665 5664 5664 5663 5663 5662 5662 5661 5661 5660 5660 5659 5659 5658 5657 5658 5661 5662 5662 5663 5663 5665 5667 5669 5671
5672 5671 5670 5669 5668 5667 5666 5665 5663 5662 5661 5659 5658 5656 5655 5654 5653 5651 5650 5649 5649 5648 5647 5647 5646 5645 5645 5644 5643 5643 5642 5642 5641 5641 5643 5645 5647 5648 5649 5651 5653 5655 5657